IGO128 VOBL-VABB

Flight info

Callsign IGO128
Flight time N/A
Altitude 38000
Route VAGPU7B VAGPU Q8 AGELA MOLGO2A
Aircraft A320/M-SDE3FGHIRWY/LB1

Departure

Time 2026-04-30 13:09
Airport Kempegowda International Airport Bengaluru (VOBL)

Arrival

Time N/A
Airport Chhatrapati Shivaji Maharaj International Airport (VABB)
Time Latitude Longitude Altitude Speed Heading
2026-04-30 12:45 13.20167 77.70849 2959 ft 0 kts 180°
2026-04-30 12:58 13.20169 77.70849 2959 ft 1 kts 180°
2026-04-30 12:58 13.20173 77.70849 2944 ft 1 kts 181°
2026-04-30 12:58 13.20178 77.70849 2944 ft 1 kts 181°
2026-04-30 12:58 13.20186 77.70849 2948 ft 1 kts 181°
2026-04-30 12:59 13.20193 77.70849 2950 ft 1 kts 181°
2026-04-30 12:59 13.20201 77.70849 2954 ft 1 kts 181°
2026-04-30 12:59 13.20209 77.70849 2956 ft 1 kts 176°
2026-04-30 12:59 13.20217 77.70849 2952 ft 1 kts 167°
2026-04-30 13:00 13.20224 77.70846 2944 ft 1 kts 149°
2026-04-30 13:00 13.20231 77.70842 2947 ft 1 kts 142°
2026-04-30 13:00 13.20238 77.70836 2950 ft 1 kts 130°
2026-04-30 13:00 13.20244 77.70828 2949 ft 1 kts 116°
2026-04-30 13:01 13.20247 77.70821 2960 ft 0 kts 91°
2026-04-30 13:03 13.20247 77.70840 2959 ft 5 kts 91°
2026-04-30 13:03 13.20246 77.70898 2958 ft 11 kts 89°
2026-04-30 13:03 13.20258 77.70989 2945 ft 15 kts 84°
2026-04-30 13:03 13.20264 77.71110 2953 ft 15 kts 88°
2026-04-30 13:04 13.20331 77.71178 2952 ft 16 kts
2026-04-30 13:04 13.20447 77.71177 2947 ft 17 kts
2026-04-30 13:04 13.20523 77.71244 2947 ft 16 kts 85°
2026-04-30 13:04 13.20522 77.71375 2945 ft 20 kts 89°
2026-04-30 13:05 13.20522 77.71501 2945 ft 19 kts 90°
2026-04-30 13:05 13.20522 77.71648 2942 ft 22 kts 90°
2026-04-30 13:05 13.20522 77.71820 2936 ft 26 kts 90°
2026-04-30 13:06 13.20517 77.72176 2930 ft 23 kts 91°
2026-04-30 13:06 13.20521 77.72240 2929 ft 7 kts 76°
2026-04-30 13:06 13.20577 77.72282 2928 ft 12 kts
2026-04-30 13:06 13.20583 77.72283 2928 ft 0 kts
2026-04-30 13:07 13.20601 77.72283 2928 ft 8 kts 358°
2026-04-30 13:07 13.20666 77.72260 2929 ft 11 kts 323°
2026-04-30 13:08 13.20683 77.72195 2930 ft 9 kts 269°
2026-04-30 13:08 13.20690 77.72028 2934 ft 60 kts 270°
2026-04-30 13:08 13.20694 77.71301 2950 ft 139 kts 270°
2026-04-30 13:08 13.20700 77.70100 3098 ft 191 kts 271°
2026-04-30 13:09 13.20737 77.68640 3658 ft 212 kts 274°
2026-04-30 13:09 13.20849 77.67104 4296 ft 221 kts 275°
2026-04-30 13:09 13.20943 77.65471 4793 ft 241 kts 271°
2026-04-30 13:09 13.20932 77.63665 5262 ft 264 kts 270°
2026-04-30 13:10 13.21188 77.61760 5903 ft 275 kts 293°
2026-04-30 13:10 13.22242 77.60135 6573 ft 278 kts 317°
2026-04-30 13:10 13.23834 77.59047 6861 ft 280 kts 332°
2026-04-30 13:10 13.25516 77.58038 6973 ft 280 kts 326°
2026-04-30 13:11 13.27011 77.56754 7002 ft 280 kts 315°
2026-04-30 13:11 13.28277 77.55232 7001 ft 281 kts 307°
2026-04-30 13:11 13.29529 77.53711 7003 ft 280 kts 320°
2026-04-30 13:11 13.31217 77.52738 7005 ft 280 kts 343°
2026-04-30 13:12 13.33140 77.52574 7001 ft 278 kts
2026-04-30 13:12 13.34942 77.53258 7006 ft 278 kts 29°
2026-04-30 13:12 13.36620 77.54274 7001 ft 281 kts 30°
2026-04-30 13:13 13.39964 77.56301 6997 ft 281 kts 29°
2026-04-30 13:13 13.41651 77.57316 6995 ft 280 kts 29°
2026-04-30 13:13 13.45033 77.59347 7528 ft 284 kts 30°
2026-04-30 13:14 13.46741 77.60372 8446 ft 284 kts 30°
2026-04-30 13:14 13.48455 77.61399 9353 ft 287 kts 30°
2026-04-30 13:14 13.52161 77.63118 10675 ft 310 kts
2026-04-30 13:15 13.54387 77.62950 10890 ft 336 kts 345°
2026-04-30 13:15 13.58714 77.60850 10975 ft 346 kts 331°
2026-04-30 13:15 13.60811 77.59643 10972 ft 346 kts 332°
2026-04-30 13:16 13.62930 77.58467 10967 ft 346 kts 333°
2026-04-30 13:16 13.64347 77.57708 10964 ft 346 kts 333°
2026-04-30 13:16 13.67219 77.56211 10961 ft 346 kts 334°
2026-04-30 13:17 13.70804 77.54379 10954 ft 346 kts 334°
2026-04-30 13:17 13.73689 77.52908 10953 ft 346 kts 334°
2026-04-30 13:17 13.77278 77.51084 10960 ft 347 kts 334°
2026-04-30 13:18 13.79450 77.49977 11300 ft 350 kts 334°
2026-04-30 13:18 13.83816 77.47750 12968 ft 353 kts 334°
2026-04-30 13:18 13.85997 77.46636 13730 ft 356 kts 334°
2026-04-30 13:19 13.88232 77.45494 14414 ft 360 kts 334°
2026-04-30 13:19 13.90486 77.44342 15114 ft 362 kts 334°
2026-04-30 13:19 13.92751 77.43184 15773 ft 366 kts 334°
2026-04-30 13:19 13.95045 77.42012 16445 ft 369 kts 334°
2026-04-30 13:20 13.97357 77.40830 17108 ft 372 kts 334°
2026-04-30 13:20 13.99684 77.39640 17762 ft 375 kts 334°
2026-04-30 13:20 14.02037 77.38436 18378 ft 379 kts 334°
2026-04-30 13:20 14.04406 77.37225 18911 ft 382 kts 334°
2026-04-30 13:21 14.06809 77.35997 19437 ft 386 kts 334°
2026-04-30 13:21 14.09226 77.34761 19980 ft 390 kts 333°
2026-04-30 13:21 14.11667 77.33513 20506 ft 393 kts 333°
2026-04-30 13:22 14.16540 77.31019 21306 ft 393 kts 333°
2026-04-30 13:22 14.19065 77.29725 21713 ft 403 kts 333°
2026-04-30 13:22 14.24132 77.27129 22949 ft 412 kts 332°
2026-04-30 13:23 14.26678 77.25824 23507 ft 416 kts 332°
2026-04-30 13:23 14.31904 77.23143 24521 ft 422 kts 332°
2026-04-30 13:24 14.37191 77.20429 25409 ft 427 kts 332°
2026-04-30 13:24 14.42543 77.17681 26200 ft 431 kts 332°
2026-04-30 13:25 14.47949 77.14902 26942 ft 436 kts 333°
2026-04-30 13:25 14.53382 77.12107 27659 ft 441 kts 333°
2026-04-30 13:26 14.61814 77.08131 28668 ft 448 kts 340°
2026-04-30 13:26 14.67721 77.05988 29316 ft 452 kts 340°
2026-04-30 13:27 14.73682 77.03808 29899 ft 457 kts 340°
2026-04-30 13:28 14.82313 77.00651 30787 ft 430 kts 340°
2026-04-30 13:28 14.88077 76.98542 30945 ft 447 kts 340°
2026-04-30 13:28 14.91027 76.97463 31011 ft 455 kts 340°
2026-04-30 13:29 14.97060 76.95255 31429 ft 461 kts 340°
2026-04-30 13:29 15.03045 76.93062 32213 ft 458 kts 340°
2026-04-30 13:30 15.12003 76.89778 33354 ft 453 kts 341°
2026-04-30 13:31 15.17933 76.87603 34036 ft 450 kts 341°
2026-04-30 13:31 15.26750 76.84367 34967 ft 446 kts 341°
2026-04-30 13:32 15.32560 76.82233 35555 ft 443 kts 341°
2026-04-30 13:32 15.38359 76.80101 36159 ft 441 kts 341°
2026-04-30 13:33 15.44143 76.77974 36763 ft 439 kts 341°
2026-04-30 13:33 15.49886 76.75861 37348 ft 436 kts 341°
2026-04-30 13:34 15.52745 76.74809 37622 ft 435 kts 341°
2026-04-30 13:34 15.61285 76.71663 37819 ft 433 kts 341°
2026-04-30 13:35 15.64116 76.70595 37821 ft 433 kts 338°
2026-04-30 13:35 15.69334 76.67481 37826 ft 435 kts 323°
2026-04-30 13:36 15.73579 76.63074 37829 ft 437 kts 309°
2026-04-30 13:36 15.79221 76.55568 37838 ft 438 kts 310°
2026-04-30 13:37 15.84829 76.48126 37845 ft 438 kts 309°
2026-04-30 13:38 15.90450 76.40649 37847 ft 438 kts 309°
2026-04-30 13:39 15.97945 76.30667 37848 ft 438 kts 309°
2026-04-30 13:40 16.03561 76.23179 37856 ft 438 kts 309°
2026-04-30 13:40 16.07300 76.18189 37853 ft 438 kts 309°
2026-04-30 13:41 16.11045 76.13187 37855 ft 438 kts 309°
2026-04-30 13:41 16.14761 76.08222 37856 ft 437 kts 309°
2026-04-30 13:42 16.18497 76.03226 37857 ft 437 kts 309°
2026-04-30 13:42 16.24104 75.95721 37857 ft 437 kts 309°
2026-04-30 13:43 16.27838 75.90719 37854 ft 438 kts 309°
2026-04-30 13:43 16.31572 75.85715 37857 ft 438 kts 309°
2026-04-30 13:44 16.35290 75.80727 37857 ft 438 kts 309°
2026-04-30 13:44 16.39028 75.75709 37861 ft 438 kts 309°
2026-04-30 13:45 16.44627 75.68188 37866 ft 438 kts 309°
2026-04-30 13:46 16.48371 75.63153 37868 ft 439 kts 309°
2026-04-30 13:46 16.52006 75.58261 37867 ft 439 kts 309°
2026-04-30 13:47 16.55815 75.53132 37873 ft 439 kts 309°
2026-04-30 13:47 16.59555 75.48093 37874 ft 439 kts 309°
2026-04-30 13:48 16.63318 75.43063 37877 ft 439 kts 309°
2026-04-30 13:48 16.67115 75.38069 37880 ft 440 kts 309°
2026-04-30 13:49 16.70912 75.33065 37885 ft 440 kts 309°
2026-04-30 13:49 16.74704 75.28054 37895 ft 440 kts 309°